Location: Newark
(44.3681°N, 100.3364°W)
Time: 21:00:55
(UTC+00:00)

Vanguard 1 - Pass Details

Date: 23 February 2020
Orbit: 649 x 3833 km, 34.2° (Epoch: 09 April)

Event Time Altitude Azimuth Distance (km) Brightness Sun altitude
Rises 20:02:17 0° 277° (W) 6,607 14.4 33.7°
Reaches altitude 10° 20:08:05 10° 268° (W) 5,014 14.1 33.3°
Maximum altitude 20:18:08 27° 218° (SW) 2,731 14.5 32.6°
Drops below altitude 10° 20:24:32 10° 162° (SSE) 3,088 13.4 32.2°
Sets 20:27:11 0° 150° (SSE) 3,743 13.5 31.9°
